Location: Burgwalden
(48.2830°N, 10.7576°E)
Time: 01:59:35
(UTC+00:00)

IDEFIX/ARIANE 42P - Pass Details

Date: 26 September 2023
Orbit: 782 x 801 km, 98.5° (Epoch: 04 December)

Event Time Altitude Azimuth Distance (km) Brightness Sun altitude
Rises 02:46:49 0° 3° (N) 3,325 6.2 -23.6°
Reaches altitude 10° 02:49:42 10° 348° (NNW) 2,391 5.2 -23.2°
Enters shadow 02:52:49 20° 312° (NW) 1,799 4.2 -22.7°
